Starlink 4103

operational
NORAD ID: 53141 Int'l Des: 2022-083 Owner: SPXS Country: US Constellation: starlink
LEOCIRCULAR

About Starlink 4103

Description loading...

Live Position

Loading 3D Globe...

Upcoming Passes

Altitude History

Altitude vs Time

uPlot chart will show altitude changes over time

Two-Line Element Set

1 53141U 22083K 25312.42590248 .00001606 00000-0 11900-3 0 9993
2 53141 53.2185 358.4937 0001253 80.3766 279.7367 15.08838482182919
Epoch: Nov 8, 2025 • Age: 67 hours

Current Status

Altitude 541.5 km
Velocity 7.60 km/s
Sub-Earth Point 34.12°N, 1.16°E
Launch Date Jul 17, 2022
Age 3.3 years
Type internet

Technical Details

Classification Payload
Mass 297.00 kg
Dry Mass 275.00 kg
Total Mass 297.00 kg
Length 0.20 m
Diameter 2.80 m
Span 9.00 m
Shape Box + pan
Manufacturer SPXS
Bus Type Starlink
Phase Status In Orbit
Owner/State SPXS/US

Large Constellations

Loading constellations...